Regional Weather Roundup
Issued by NWS Northern Indiana

Home | Current Version | Previous Version | Graphics & Text | Print | Product List | Glossary On
Versions: 1 2 3 4 5 6 7 8 9 10 11 12 13 14 15 16 17 18 19 20 21 22 23 24 25 26 27 28 29 30 31 32 33 34 35 36 37 38 39 40 41 42 43 44 45 46 47 48 49 50
000
ASUS43 KIWX 281700
RWRIWX

KIWX WEATHER ROUNDUP
NATIONAL WEATHER SERVICE NORTHERN INDIANA
100 PM EDT SAT MAR 28 2015

NOTE: "FAIR" INDICATES FEW OR NO CLOUDS BELOW 12,000 FEET WITH NO
SIGNIFICANT WEATHER AND/OR OBSTRUCTIONS TO VISIBILITY.

* THESE STATIONS ARE NOT UNDER NWS QUALITY CONTROL. THEY ALSO MAY NOT
  REPORT WEATHER SUCH AS PRECIPITATION OR FOG.

INZ001>027-281800-
NORTHERN INDIANA

CITY           SKY/WX    TMP DP  RH WIND       PRES   REMARKS
GARY*          SUNNY     30   7  37 NE14      30.37  WCI  20
KNOX*            N/A     30 -17  12 NE5       30.33S WCI  25
SOUTH BEND     SUNNY     31   6  35 VRB7      30.33F WCI  24
ELKHART*       SUNNY     28   3  34 NW3       30.33
GOSHEN         SUNNY     29   8  41 CALM      30.31S
ANGOLA*        SUNNY     27   7  43 VRB3      30.30R
FORT WAYNE     MOSUNNY   29   7  39 VRB3      30.32S
PERU/GRISSOM   SUNNY     29   9  42 VRB1      30.31S

$$
INZ028>050-281800-
CENTRAL INDIANA

CITY           SKY/WX    TMP DP  RH WIND       PRES   REMARKS
LAFAYETTE      SUNNY     31  10  41 NE5       30.34R WCI  26
KOKOMO*          N/A     28  10  47 NE6       30.32S WCI  22
MUNCIE*        SUNNY     28  12  51 VRB5      30.31R WCI  23
INDIANAPOLIS   MOSUNNY   32   8  36 NE6       30.30S WCI  26

$$
MIZ043>046-050>051-056>058-064>065-071>073-077>080-281800-
SOUTHWEST LOWER MICHIGAN

CITY           SKY/WX    TMP DP  RH WIND       PRES   REMARKS
BATTLE CREEK   SUNNY     30   3  31 NE7       30.31S WCI  23
BENTON HARBOR  SUNNY     25  11  55 VRB6      30.35S WCI  18
COLDWATER*     SUNNY     28   5  37 CALM      30.30S
HILLSDALE*     SUNNY     29   6  38 N8        30.27S WCI  21
HOLLAND        SUNNY     29   2  31 CALM      30.34F
GRAND RAPIDS   SUNNY     29   4  34 NW6       30.32F WCI  23
KALAMAZOO      SUNNY     29   3  33 VRB3      30.32S
STURGIS*       SUNNY     27   7  43 N5        30.30S WCI  21
THREE RIVERS*  FAIR      29   3  32 N6        30.32S WCI  23

$$
OHZ001>008-015>018-024>025-281800-
NORTHWEST OHIO

CITY           SKY/WX    TMP DP  RH WIND       PRES   REMARKS
DEFIANCE       SUNNY     30  11  45 N10       30.32R WCI  21
FINDLAY        PTSUNNY   28  10  46 NE8       30.29R WCI  20
TOLEDO EXPRESS MOSUNNY   28   9  44 N6        30.30R WCI  22
TOLEDO METCALF SUNNY     28  10  46 NE6       30.31S WCI  22
LIMA           CLOUDY    28  12  51 N8        30.28S WCI  20

$$
AND FOR LAKE MICHIGAN COASTAL AND OPEN LAKE BUOY OBSERVATIONS

STATION/POSITION TEMP    WIND        PRES    VSBY  WAVE
                 AIR SEA DIR/SP/G                  HT/PER
                 (F)     (DEG/KT/KT) (MB)    (MI)  (FT/S)
CALUMET HARBOR    27      40/  9/ 11 1026.9R
MICHIGAN CITY     22     360/  9/ 11   N/A
BURNS HARBOR      24      40/  8/  9 1028.4F
SAINT JOSEPH      23     300/  6/  9 1028.8R

$$
&&


USA.gov is the U.S. government's official web portal to all federal, state and local government web resources and services.